Andover, NJ

3:24 AM EDT on October 23, 2017 (GMT -0400)
Andover

Weather History for K12N - May, 2013

Change the Weather History Date:

Saturday, May 25, 2013

  Actual Average (KFWN) Record (KFWN)
Temperature  
Mean Temperature 49 °F -  
Max Temperature 55 °F 73 °F 90 °F (1975)
Min Temperature 43 °F 48 °F 28 °F (1956)
Degree Days  
Heating Degree Days 16    
Moisture  
Dew Point 38 °F    
Average Humidity 68    
Maximum Humidity 86    
Minimum Humidity 47    
Precipitation  
Precipitation 0.13 in - - ()
Sea Level Pressure  
Sea Level Pressure 29.99 in    
Wind  
Wind Speed 8 mph (North)    
Max Wind Speed 14 mph    
Max Gust Speed 28 mph    
Averages and records for this station are not official NWS values.
T = Trace of Precipitation, MM = Missing Value Source: NWS Daily Summary

Daily Weather History Graph

Daily Weather History Graph

Search for Another Location

Airport or City:

Trip Planner

Search our weather history database for the weather conditions in past years. The results will help you decide how hot, cold, wet, or windy it might be!

Date:

Astronomy

May. 25, 2013 Rise Set
Actual Time 5:32 AM EDT 8:19 PM EDT
Civil Twilight 5:00 AM EDT 8:51 PM EDT
Nautical Twilight 4:20 AM EDT 9:32 PM EDT
Astronomical Twilight 3:33 AM EDT 10:19 PM EDT
Moon 9:04 PM EDT (5/25) 5:57 AM EDT (5/25)
Length of Visible Light 15h 51m
Length of Day
14h 46m
Full, 100% of the Moon is Illuminated
May 25
Full
May 31
Last Quarter
Jun 8
New
Jun 16
First Quarter
Jun 23
Full

Hourly Weather History & Observations

Time (EDT) Temp. Windchill Dew Point Humidity Pressure Visibility Wind Dir Wind Speed Gust Speed Precip Events Conditions
12:54 AM 43.0 °F 37.7 °F 39.0 °F 86% 29.99 in - North 9.2 mph - 0.04 in   Unknown
1:54 AM 43.0 °F 39.5 °F 39.0 °F 86% 29.97 in - Variable 5.8 mph 17.3 mph 0.02 in   Unknown
2:54 AM 43.0 °F 40.3 °F 39.0 °F 86% 29.96 in - North 4.6 mph - 0.03 in   Unknown
3:54 AM 43.0 °F 40.3 °F 39.0 °F 86% 29.96 in - Variable 4.6 mph - N/A   Unknown
4:54 AM 43.0 °F 38.8 °F 39.0 °F 86% 29.95 in - Variable 6.9 mph - 0.02 in   Unknown
5:54 AM 44.1 °F 40.1 °F 39.9 °F 85% 29.96 in - NNW 6.9 mph - 0.01 in   Unknown
6:54 AM 44.1 °F 39.5 °F 39.9 °F 85% 29.97 in - North 8.1 mph - 0.01 in   Unknown
7:54 AM 46.0 °F 41.9 °F 39.9 °F 79% 29.97 in - North 8.1 mph - N/A   Unknown
8:54 AM 46.9 °F - 39.0 °F 74% 29.98 in - North 10.4 mph 19.6 mph N/A   Unknown
9:54 AM 48.0 °F - 39.0 °F 71% 29.99 in - North 10.4 mph 19.6 mph N/A   Unknown
10:54 AM 48.0 °F - 39.0 °F 71% 29.99 in - Variable 4.6 mph - N/A   Unknown
11:54 AM 50.0 °F - 39.0 °F 66% 29.99 in - Variable 5.8 mph 19.6 mph N/A   Unknown
12:54 PM 51.1 °F - 39.0 °F 63% 29.99 in - Variable 5.8 mph 23.0 mph N/A   Unknown
1:54 PM 53.1 °F - 37.9 °F 57% 29.98 in - North 12.7 mph 27.6 mph N/A   Unknown
2:54 PM 55.0 °F - 37.9 °F 53% 29.97 in - NNW 11.5 mph 20.7 mph N/A   Unknown
3:54 PM 54.0 °F - 36.0 °F 51% 29.98 in - North 13.8 mph 26.5 mph N/A   Unknown
4:54 PM 55.0 °F - 35.1 °F 47% 29.98 in - North 9.2 mph 20.7 mph N/A   Unknown
5:54 PM 53.1 °F - 34.0 °F 48% 29.99 in - North 12.7 mph 24.2 mph N/A   Unknown
6:54 PM 52.0 °F - 35.1 °F 53% 30.02 in - NNW 8.1 mph 16.1 mph N/A   Unknown
7:54 PM 51.1 °F - 34.0 °F 52% 30.03 in - North 9.2 mph 18.4 mph N/A   Unknown
8:54 PM 51.1 °F - 33.1 °F 50% 30.04 in - NNW 9.2 mph 24.2 mph N/A   Unknown
9:54 PM 50.0 °F - 35.1 °F 57% 30.03 in - Variable 3.5 mph - N/A   Unknown
10:54 PM 48.0 °F - 36.0 °F 63% 30.04 in - Variable 6.9 mph - N/A   Unknown
11:54 PM 48.0 °F - 37.9 °F 68% 30.04 in - North 8.1 mph 18.4 mph N/A   Unknown